When you browse on this site, cookies collect data to enhance your experience and personalize the content and advertising you see.
Visit our Privacy Policy to learn more. By continuing to use the site, you agree to this use of cookies and data.
  • In Schweiz
  • Länderverzeichnis
  • Für 7 Tage
  • Wassertemperatur
  • Satellitenkarten
  • Wetterkarte
  • Widgets
  • user-avatar
    Anmelden

    Stündliche Wetter Nagretdinovo

    Heute, 18 Februar, Montag

    Zeit Temperatur Niederschläge Wind Luftdruck Luftfeuchtigkeit
    00:00 -6°C° 0.1 mm 5 m/S 720 mmHg 91%
    01:00 -6°C° 0.1 mm 6 m/S 720 mmHg 91%
    02:00 -6°C° 0.2 mm 5 m/S 719 mmHg 91%
    03:00 -6°C° 0.2 mm 5 m/S 719 mmHg 92%
    04:00 -6°C° 0 mm 5 m/S 718 mmHg 92%
    05:00 -6°C° 0.4 mm 5 m/S 718 mmHg 92%
    06:00 -6°C° 0.4 mm 5 m/S 718 mmHg 93%
    07:00 -6°C° 0.4 mm 5 m/S 717 mmHg 93%
    08:00 -6°C° 0.3 mm 5 m/S 717 mmHg 93%
    09:00 -6°C° 0.3 mm 5 m/S 717 mmHg 92%
    10:00 -5°C° 0.3 mm 4 m/S 717 mmHg 92%
    11:00 -5°C° 0.2 mm 4 m/S 718 mmHg 91%
    12:00 -4°C° 0.2 mm 4 m/S 718 mmHg 91%
    13:00 -4°C° 0.2 mm 3 m/S 718 mmHg 90%
    14:00 -4°C° 0.2 mm 3 m/S 718 mmHg 91%
    15:00 -3°C° 0.2 mm 2 m/S 718 mmHg 91%
    16:00 -1°C° 0.2 mm 1 m/S 719 mmHg 92%
    17:00 -1°C° 0.2 mm 1 m/S 719 mmHg 93%
    18:00 -2°C° 0.2 mm 1 m/S 720 mmHg 94%
    19:00 -2°C° 0.2 mm 1 m/S 720 mmHg 96%
    20:00 -2°C° 0.2 mm 1 m/S 721 mmHg 96%
    21:00 -2°C° 0.2 mm 1 m/S 721 mmHg 96%
    22:00 -4°C° 0.2 mm 2 m/S 721 mmHg 96%
    23:00 -5°C° 0.3 mm 3 m/S 722 mmHg 96%

    Morgen, 19 Februar, Dienstag

    Zeit Temperatur Niederschläge Wind Luftdruck Luftfeuchtigkeit
    00:00 -5°C° 0.3 mm 3 m/S 723 mmHg 96%
    01:00 -7°C° 0.3 mm 4 m/S 723 mmHg 95%
    02:00 -8°C° 0.2 mm 5 m/S 724 mmHg 93%
    03:00 -11°C° 0.2 mm 6 m/S 724 mmHg 91%
    04:00 -14°C° 0.2 mm 7 m/S 725 mmHg 89%
    05:00 -14°C° 0.1 mm 7 m/S 726 mmHg 88%
    06:00 -15°C° 0.1 mm 7 m/S 727 mmHg 88%
    07:00 -17°C° 0.1 mm 7 m/S 727 mmHg 88%
    08:00 -18°C° 0 mm 7 m/S 728 mmHg 88%
    09:00 -18°C° 0 mm 7 m/S 729 mmHg 87%
    10:00 -19°C° 0 mm 7 m/S 730 mmHg 87%
    11:00 -18°C° 0 mm 6 m/S 730 mmHg 87%
    12:00 -18°C° 0 mm 6 m/S 731 mmHg 87%
    13:00 -18°C° 0 mm 6 m/S 731 mmHg 87%
    14:00 -18°C° 0 mm 5 m/S 732 mmHg 88%
    15:00 -18°C° 0 mm 5 m/S 732 mmHg 88%
    16:00 -18°C° 0 mm 5 m/S 733 mmHg 89%
    17:00 -18°C° 0 mm 4 m/S 734 mmHg 90%
    18:00 -19°C° 0 mm 4 m/S 734 mmHg 92%
    19:00 -19°C° 0 mm 3 m/S 735 mmHg 93%
    20:00 -21°C° 0 mm 3 m/S 735 mmHg 94%
    21:00 -20°C° 0 mm 2 m/S 736 mmHg 95%
    22:00 -21°C° 0 mm 2 m/S 736 mmHg 96%
    23:00 -19°C° 0 mm 1 m/S 736 mmHg 96%

    übermorgen, 20 Februar, Mittwoch

    Zeit Temperatur Niederschläge Wind Luftdruck Luftfeuchtigkeit
    00:00 -19°C° 0 mm 1 m/S 737 mmHg 96%
    01:00 -20°C° 0 mm 1 m/S 737 mmHg 96%
    02:00 -20°C° 0 mm 1 m/S 737 mmHg 97%
    03:00 -21°C° 0 mm 1 m/S 737 mmHg 97%
    04:00 -22°C° 0 mm 0 m/S 737 mmHg 98%
    05:00 -22°C° 0 mm 1 m/S 737 mmHg 97%
    06:00 -21°C° 0 mm 1 m/S 738 mmHg 96%
    07:00 -24°C° 0 mm 2 m/S 738 mmHg 95%
    08:00 -23°C° 0 mm 2 m/S 738 mmHg 94%
    09:00 -23°C° 0 mm 3 m/S 738 mmHg 92%
    10:00 -22°C° 0 mm 3 m/S 739 mmHg 91%
    11:00 -19°C° 0 mm 3 m/S 738 mmHg 91%
    12:00 -19°C° 0 mm 4 m/S 738 mmHg 90%
    13:00 -18°C° 0 mm 4 m/S 738 mmHg 90%
    14:00 -18°C° 0 mm 5 m/S 738 mmHg 91%
    15:00 -18°C° 0 mm 5 m/S 738 mmHg 91%
    16:00 -17°C° 0 mm 5 m/S 737 mmHg 92%
    17:00 -17°C° 0 mm 5 m/S 737 mmHg 92%
    18:00 -17°C° 0 mm 6 m/S 737 mmHg 93%
    19:00 -18°C° 0 mm 6 m/S 737 mmHg 93%
    20:00 -17°C° 0 mm 6 m/S 736 mmHg 92%
    21:00 -17°C° 0 mm 7 m/S 736 mmHg 92%
    22:00 -17°C° 0 mm 7 m/S 736 mmHg 91%
    23:00 -15°C° 0.1 mm 7 m/S 735 mmHg 91%

    21 Februar, Donnerstag

    Zeit Temperatur Niederschläge Wind Luftdruck Luftfeuchtigkeit
    00:00 -15°C° 0.1 mm 7 m/S 735 mmHg 91%
    01:00 -15°C° 0.1 mm 7 m/S 734 mmHg 91%
    02:00 -14°C° 0.1 mm 7 m/S 734 mmHg 92%
    03:00 -14°C° 0.1 mm 7 m/S 734 mmHg 92%
    04:00 -14°C° 0.1 mm 7 m/S 734 mmHg 92%
    05:00 -13°C° 0.1 mm 7 m/S 733 mmHg 92%
    06:00 -13°C° 0.1 mm 7 m/S 733 mmHg 92%
    07:00 -11°C° 0.1 mm 6 m/S 733 mmHg 92%
    08:00 -12°C° 0.1 mm 7 m/S 733 mmHg 92%
    09:00 -12°C° 0.1 mm 7 m/S 733 mmHg 92%
    10:00 -11°C° 0.1 mm 7 m/S 733 mmHg 92%
    11:00 -11°C° 0.1 mm 7 m/S 733 mmHg 92%
    12:00 -11°C° 0.1 mm 7 m/S 733 mmHg 92%
    13:00 -9°C° 0.1 mm 7 m/S 734 mmHg 92%
    14:00 -9°C° 0.2 mm 7 m/S 734 mmHg 92%
    15:00 -9°C° 0.2 mm 7 m/S 734 mmHg 92%
    16:00 -9°C° 0.2 mm 6 m/S 734 mmHg 92%
    17:00 -9°C° 0.3 mm 7 m/S 734 mmHg 92%
    18:00 -9°C° 0.3 mm 7 m/S 734 mmHg 92%
    19:00 -9°C° 0.3 mm 7 m/S 734 mmHg 92%
    20:00 -9°C° 0.4 mm 7 m/S 734 mmHg 92%
    21:00 -9°C° 0.4 mm 7 m/S 734 mmHg 92%
    22:00 -9°C° 0.4 mm 7 m/S 733 mmHg 92%
    23:00 -8°C° 0.5 mm 7 m/S 733 mmHg 92%

    22 Februar, Freitag

    Zeit Temperatur Niederschläge Wind Luftdruck Luftfeuchtigkeit
    00:00 -8°C° 0.5 mm 7 m/S 733 mmHg 92%
    01:00 -6°C° 0.5 mm 6 m/S 733 mmHg 92%
    02:00 -7°C° 0.3 mm 7 m/S 733 mmHg 92%
    03:00 -7°C° 0.3 mm 7 m/S 732 mmHg 91%
    04:00 -7°C° 0.3 mm 7 m/S 732 mmHg 90%
    05:00 -7°C° 0.2 mm 7 m/S 732 mmHg 90%
    06:00 -7°C° 0.2 mm 7 m/S 732 mmHg 90%
    07:00 -7°C° 0.2 mm 7 m/S 731 mmHg 90%
    08:00 -6°C° 0.1 mm 7 m/S 731 mmHg 89%
    09:00 -6°C° 0.1 mm 7 m/S 731 mmHg 89%
    10:00 -6°C° 0.1 mm 7 m/S 731 mmHg 88%
    11:00 -6°C° 0.4 mm 7 m/S 731 mmHg 89%
    12:00 -6°C° 0.4 mm 7 m/S 730 mmHg 90%
    13:00 -5°C° 0.4 mm 6 m/S 730 mmHg 92%
    14:00 -4°C° 0.5 mm 6 m/S 730 mmHg 90%
    15:00 -4°C° 0.5 mm 6 m/S 730 mmHg 89%
    16:00 -4°C° 0.5 mm 6 m/S 730 mmHg 88%
    17:00 -4°C° 0.2 mm 5 m/S 730 mmHg 90%
    18:00 -5°C° 0.2 mm 5 m/S 730 mmHg 92%
    19:00 -4°C° 0.2 mm 4 m/S 730 mmHg 94%
    20:00 -7°C° 0.1 mm 5 m/S 730 mmHg 92%
    21:00 -10°C° 0.1 mm 5 m/S 730 mmHg 90%
    22:00 -11°C° 0.1 mm 5 m/S 730 mmHg 89%
    23:00 -11°C° 0.1 mm 5 m/S 731 mmHg 90%

    23 Februar, Samstag

    Zeit Temperatur Niederschläge Wind Luftdruck Luftfeuchtigkeit
    00:00 -11°C° 0.1 mm 5 m/S 731 mmHg 92%
    01:00 -11°C° 0.1 mm 5 m/S 732 mmHg 93%
    02:00 -11°C° 0.6 mm 5 m/S 732 mmHg 94%
    03:00 -11°C° 0.6 mm 5 m/S 733 mmHg 94%
    04:00 -11°C° 0.6 mm 5 m/S 733 mmHg 95%
    05:00 -12°C° 0.2 mm 5 m/S 734 mmHg 94%
    06:00 -12°C° 0.2 mm 5 m/S 734 mmHg 94%
    07:00 -13°C° 0.2 mm 5 m/S 735 mmHg 94%
    08:00 -14°C° 0.1 mm 5 m/S 736 mmHg 94%
    09:00 -14°C° 0.1 mm 5 m/S 737 mmHg 94%
    10:00 -15°C° 0.1 mm 4 m/S 738 mmHg 95%
    11:00 -15°C° 0.1 mm 4 m/S 738 mmHg 94%
    12:00 -14°C° 0.1 mm 4 m/S 739 mmHg 93%
    13:00 -14°C° 0.1 mm 4 m/S 740 mmHg 92%
    14:00 -14°C° 0.1 mm 4 m/S 740 mmHg 92%
    15:00 -15°C° 0.1 mm 4 m/S 740 mmHg 92%
    16:00 -14°C° 0.1 mm 3 m/S 741 mmHg 92%
    17:00 -14°C° 0 mm 3 m/S 741 mmHg 93%
    18:00 -14°C° 0 mm 2 m/S 742 mmHg 94%
    19:00 -15°C° 0 mm 2 m/S 742 mmHg 95%
    20:00 -16°C° 0 mm 2 m/S 742 mmHg 96%
    21:00 -15°C° 0 mm 1 m/S 742 mmHg 96%
    22:00 -16°C° 0 mm 1 m/S 743 mmHg 96%
    23:00 -16°C° 0 mm 1 m/S 743 mmHg 97%
    Mehr zeigen